Regional Weather Roundup
Issued by NWS Cleveland, OH

Home | Current Version | Previous Version | Graphics & Text | Print | Product List | Glossary On
Versions: 1 2 3 4 5 6 7 8 9 10 11 12 13 14 15 16 17 18 19 20 21 22 23 24 25 26 27 28 29 30 31 32 33 34 35 36 37 38 39 40 41 42 43 44 45 46 47 48 49 50
000
ASUS41 KCLE 222210
RWRCLE
OHIO REGIONAL WEATHER ROUNDUP
NATIONAL WEATHER SERVICE CLEVELAND, OH
600 PM EDT THU JUN 22 2017

NOTE: "FAIR" INDICATES FEW OR NO CLOUDS BELOW 12,000 FEET WITH NO
SIGNIFICANT WEATHER AND/OR OBSTRUCTIONS TO VISIBILITY.

OHZ001>008-015>018-024>027-034-035-043-044-222300-
   NORTHWEST OHIO

CITY           SKY/WX    TMP DP  RH WIND       PRES   REMARKS
DEFIANCE       PTSUNNY   85  67  54 S20G29    29.83F
FINDLAY        SUNNY     87  66  49 SW23G31   29.85F
TOLEDO EXPRESS CLOUDY    80  71  74 S10G25    29.82F THUNDER
TOLEDO EXEC    TSTM      72  71  97 CALM      29.85R FOG
LIMA           MOSUNNY   84  68  58 SW18G26   29.88F
$$

OHZ009>014-019>023-028>033-038-089-222300-
   NORTHEAST OHIO

CITY           SKY/WX    TMP DP  RH WIND       PRES   REMARKS
CLE-HOPKINS    CLOUDY    88  65  46 SW13      29.88F HX  90
CLE-LAKEFRONT  CLOUDY    87  66  49 S17G23    29.84F
CUY CO. ARPT   PTSUNNY   88  66  48 W14       29.88F HX  90
LORAIN-ELYRIA  MOSUNNY   87  63  44 SW17G25   29.87F
ASHTABULA      CLOUDY    80  71  74 SW8       29.89F
AKRON-CANTON   PTSUNNY   85  66  53 SW16      29.93S
WOOSTER        MOSUNNY   86  66  51 S14G22    29.92F
MANSFIELD      CLOUDY    84  68  58 SW20      29.92F
YOUNGSTOWN     CLOUDY    83  67  58 SW15      29.92S
$$

OHZ042-051>053-060>062-070>072-077>081-222300-
  SOUTHWEST OHIO

CITY           SKY/WX    TMP DP  RH WIND       PRES   REMARKS
CINC-COVINGTON CLOUDY    76  68  76 S10       29.94F
CINC-LUNKEN    CLOUDY    78  69  73 S14       29.94S
HAMILTON       CLOUDY    80  68  66 VRB7G20   29.93F
DAYTON         PTSUNNY   80  67  64 S17       29.93S
WRIGHT-PAT AFB PTSUNNY   81  69  67 SW18G24   29.91F
DAYTON GENERAL CLOUDY    79  68  69 S18G24    29.92F
WILMINGTON     CLOUDY    78  69  73 S17       29.94F
$$

OHZ036-037-039>041-045>050-054>059-063>069-073>076-082>088-222300-
  CENTRAL AND SOUTHEAST OHIO

CITY           SKY/WX    TMP DP  RH WIND       PRES   REMARKS
COLUMBUS       CLOUDY    84  70  62 SW16G25   29.92F
OSU AIRPORT    MOSUNNY   84  71  65 S17       29.92F
BOLTON FIELD   PTSUNNY   82  70  65 SW18      29.94F
RICKENBACK AFB CLOUDY    83  70  63 SW17G28   29.93S
NEWARK         CLOUDY    83  68  60 S9G17     29.93F
MARION         PTSUNNY   84  66  54 SW21G28   29.91F
LANCASTER      PTSUNNY   83  71  67 SW13      29.94F
ZANESVILLE     CLOUDY    82  69  64 S14G20    29.95F
NEW PHILLY     NOT AVBL
$$




USA.gov is the U.S. government's official web portal to all federal, state and local government web resources and services.